Change the Weather History Date:

Friday, March 29, 2013

  Actual Average Record
Temperature  
Mean Temperature 74 °F -  
Max Temperature 82 °F 96 °F 96 °F (2002)
Min Temperature 66 °F 72 °F 51 °F (2005)
Cooling Degree Days 9    
Growing Degree Days 24 (Base 50)    
Moisture  
Dew Point 60 °F    
Average Humidity 67    
Maximum Humidity 88    
Minimum Humidity 47    
Precipitation  
Precipitation 0.00 in - - ()
Sea Level Pressure  
Sea Level Pressure 29.82 in    
Wind  
Wind Speed 4 mph ()    
Max Wind Speed 14 mph    
Max Gust Speed 23 mph    
Visibility 1.8 miles    
Events Thunderstorm    
Averages and records for this station are not official NWS values.
T = Trace of Precipitation, MM = Missing Value Source: Averaged Metar Reports

Daily Weather History Graph

Daily Weather History Graph

Search for Another Location

Airport or City:

Trip Planner

Search our weather history database for the weather conditions in past years. The results will help you decide how hot, cold, wet, or windy it might be!

Date:

Astronomy

Mar. 29, 2013 Rise Set
Actual Time 6:15 AM IST 6:37 PM IST
Civil Twilight 5:51 AM IST 7:01 PM IST
Nautical Twilight 5:23 AM IST 7:29 PM IST
Astronomical Twilight 4:55 AM IST 7:57 PM IST
Moon 8:51 PM IST (3/29) 7:16 AM IST (3/29)
Length of Visible Light 13h 09m
Length of Day
12h 22m
Waning Gibbous, 95% of the Moon is Illuminated
Mar 29
Waning Gibbous
Apr 3
Last Quarter
Apr 10
New
Apr 18
First Quarter
Apr 26
Full

Hourly Weather History & Observations

Time (IST) Temp. Heat Index Dew Point Humidity Pressure Visibility Wind Dir Wind Speed Gust Speed Precip Events Conditions
12:30 AM 68.0 °F - 62.6 °F 83% 29.83 in 1.9 mi East 3.5 mph - N/A   Scattered Clouds
1:00 AM 68.0 °F - 62.6 °F 83% 29.83 in 1.7 mi Calm Calm - N/A   Scattered Clouds
1:30 AM 68.0 °F - 62.6 °F 83% 29.83 in 1.7 mi Calm Calm - N/A   Scattered Clouds
2:00 AM 68.0 °F - 62.6 °F 83% 29.83 in 1.7 mi Calm Calm - N/A   Scattered Clouds
2:30 AM 68.0 °F - 62.6 °F 83% 29.83 in 1.7 mi East 4.6 mph - N/A   Scattered Clouds
3:00 AM 68.0 °F - 62.6 °F 83% 29.80 in 1.7 mi East 3.5 mph - N/A   Scattered Clouds
3:30 AM 68.0 °F - 62.6 °F 83% 29.80 in 1.6 mi NNE 3.5 mph - N/A   Scattered Clouds
4:00 AM 68.0 °F - 62.6 °F 83% 29.80 in 1.4 mi NNE 3.5 mph - N/A   Scattered Clouds
4:30 AM 68.0 °F - 62.6 °F 83% 29.80 in 1.4 mi NE 3.5 mph - N/A   Scattered Clouds
5:00 AM 66.2 °F - 62.6 °F 88% 29.80 in 1.2 mi East 4.6 mph - N/A   Scattered Clouds
5:30 AM 66.2 °F - 62.6 °F 88% 29.80 in 1.1 mi ENE 3.5 mph - N/A   Scattered Clouds
6:30 AM 66.2 °F - 62.6 °F 88% 29.80 in 0.8 mi East 5.8 mph - N/A   Scattered Clouds
7:00 AM 66.2 °F - 62.6 °F 88% 29.80 in 0.8 mi East 6.9 mph - N/A   Scattered Clouds
7:30 AM 68.0 °F - 62.6 °F 83% 29.80 in 0.9 mi East 8.1 mph - N/A   Scattered Clouds
9:00 AM 75.2 °F - 62.6 °F 65% 29.83 in 1.6 mi ESE 8.1 mph - N/A   Haze
9:30 AM 77.0 °F - 62.6 °F 61% 29.86 in 1.6 mi ESE 3.5 mph - N/A   Haze
10:30 AM 78.8 °F - 62.6 °F 57% 29.86 in 1.9 mi SSE 6.9 mph - N/A   Haze
11:00 AM 78.8 °F - 62.6 °F 57% 29.86 in 1.9 mi West 8.1 mph - N/A   Haze
11:30 AM 80.6 °F 81.8 °F 62.6 °F 54% 29.86 in 1.9 mi NW 5.8 mph - N/A   Haze
12:00 PM 80.6 °F 81.8 °F 62.6 °F 54% 29.86 in 1.6 mi West 3.5 mph - N/A   Haze
12:30 PM 82.4 °F 83.4 °F 62.6 °F 51% 29.83 in 1.6 mi NNW 6.9 mph - N/A   Haze
1:00 PM 82.4 °F 83.4 °F 62.6 °F 51% 29.83 in 1.6 mi NW 13.8 mph - N/A Thunderstorm Thunderstorm
1:30 PM 77.0 °F - 62.6 °F 61% 29.83 in 1.6 mi NE 11.5 mph 23.0 mph N/A Thunderstorm Thunderstorm
2:30 PM 75.2 °F - 59.0 °F 57% 29.83 in 2.2 mi NE 11.5 mph 23.0 mph N/A Thunderstorm Thunderstorm
3:00 PM 75.2 °F - 59.0 °F 57% 29.83 in 2.2 mi NE 11.5 mph 23.0 mph N/A Thunderstorm Thunderstorm
3:30 PM 77.0 °F - 55.4 °F 47% 29.83 in 2.5 mi NE 11.5 mph 23.0 mph N/A   Haze
4:00 PM 77.0 °F - 55.4 °F 47% 29.80 in 2.5 mi ENE 11.5 mph 23.0 mph N/A   Haze
4:30 PM 75.2 °F - 55.4 °F 50% 29.80 in 2.5 mi ENE 13.8 mph - N/A   Haze
5:00 PM 75.2 °F - 55.4 °F 50% 29.80 in 2.5 mi ENE 12.7 mph - N/A   Haze
5:30 PM 75.2 °F - 55.4 °F 50% 29.80 in 2.5 mi ENE 10.4 mph - N/A   Haze
6:00 PM 75.2 °F - 57.2 °F 53% 29.80 in 2.5 mi NE 10.4 mph - N/A   Haze
6:30 PM 75.2 °F - 55.4 °F 50% 29.80 in 2.5 mi NE 5.8 mph - N/A   Haze
7:00 PM 73.4 °F - 57.2 °F 57% 29.80 in 2.5 mi NE 5.8 mph - N/A   Haze
7:30 PM 73.4 °F - 57.2 °F 57% 29.83 in 2.5 mi ENE 3.5 mph - N/A   Haze
8:00 PM 73.4 °F - 59.0 °F 61% 29.83 in 2.2 mi NE 3.5 mph - N/A   Haze
8:30 PM 71.6 °F - 59.0 °F 64% 29.83 in 2.2 mi NNE 3.5 mph - N/A   Haze
9:00 PM 71.6 °F - 55.4 °F 57% 29.83 in 2.2 mi NNE 4.6 mph - N/A   Haze
9:30 PM 68.0 °F - 59.0 °F 73% 29.86 in - Calm Calm - N/A   Haze
10:30 PM 68.0 °F - 60.8 °F 78% 29.86 in 1.9 mi Calm Calm - N/A   Mist
11:00 PM 68.0 °F - 60.8 °F 78% 29.86 in 1.7 mi Calm Calm - N/A   Mist
11:30 PM 68.0 °F - 60.8 °F 78% 29.86 in 1.5 mi Calm Calm - N/A   Mist